[[{"header":{"parameterUnit":"m.s-1","parameterCategory":2,"la1":30.2991,"la2":30.254,"lo1":-89.0895,"lo2":-89.0444,"dy":0.0017,"dx":0.0017,"nx":28,"ny":28,"refTime":"2025-08-03T09:00:00:Z","depth":"0","parameterNumber":2,"parameterNumberName":"U-component_of_CURRENTS"},"data":[0,0,0,0,0,0,0,0,0,0,0,0,0,0,0,0,0,0,0,0,0,0,0,0,0,0,0,0,0,0,0,0,0,0,0,0,0,0,0,0,0,0,0,0,0,0,0,0,0,0,0,0,0,0,0,0,0,0,-0.348,-0.3482,0,-0.357,-0.357,-0.357,-0.3511,-0.3509,-0.3507,-0.3506,-0.3449,-0.3449,-0.3449,0,0,0,0,0,0,0,0,0,0,0,0,0,-0.3122,-0.3129,-0.348,-0.3482,-0.3484,-0.357,-0.357,-0.357,-0.3511,-0.3509,-0.3507,-0.3505,-0.3449,-0.3449,-0.3449,0,0,0,0,0,0,0,0,0,0,0,0,0,-0.3242,-0.3131,-0.3479,-0.3472,-0.3473,-0.357,-0.357,-0.3571,-0.3512,-0.3509,-0.3506,-0.3504,-0.3449,-0.3449,-0.3449,-0.3504,0,0,-0.345,-0.345,0,0,0,0,0,0,0,0,-0.3235,-0.3254,-0.3471,-0.3473,-0.3475,-0.3536,-0.3424,-0.3545,-0.3512,-0.3486,-0.3506,-0.3503,-0.3473,-0.3471,-0.3481,-0.3501,-0.3499,-0.345,-0.345,-0.345,-0.345,0,0,0,0,0,0,0,-0.3227,-0.3249,-0.3505,-0.3474,-0.3476,-0.342,-0.3434,-0.3446,-0.3483,-0.3488,-0.3487,-0.3514,-0.3471,-0.3481,-0.3479,-0.3498,-0.345,-0.345,-0.345,-0.345,-0.3472,-0.3472,0,0,0,0,0,0,-0.3249,-0.3243,-0.3502,-0.3509,-0.3358,-0.343,-0.3445,-0.351,-0.3486,-0.3484,-0.3517,-0.3512,-0.3482,-0.3479,-0.3477,-0.3393,-0.345,-0.345,-0.345,-0.3471,-0.3472,-0.3472,0,0,0,0,0,0,-0.3242,-0.3273,-0.3499,-0.3382,-0.3408,-0.3441,-0.3513,-0.3514,-0.3516,-0.3511,-0.3503,-0.3518,-0.348,-0.3477,-0.3473,-0.3395,-0.345,-0.3451,-0.3471,-0.3471,-0.3472,-0.3319,0,0,0,0,0,0,-0.3232,-0.327,-0.3311,-0.3386,-0.3417,-0.3533,-0.3517,-0.3518,-0.3543,-0.3536,-0.351,-0.3503,-0.3478,-0.3473,-0.3473,-0.3397,-0.3451,-0.347,-0.3471,-0.3472,-0.3323,-0.3314,-0.3306,0,0,0,0,0,-0.3219,-0.3291,-0.3314,-0.3344,-0.3478,-0.3534,-0.3542,-0.3546,-0.3545,-0.3538,-0.3529,-0.3503,-0.3477,-0.3475,-0.3475,-0.3395,-0.347,-0.3471,-0.3472,-0.3327,-0.3316,-0.3306,0,0,0,0,0,0,-0.3165,-0.3296,-0.3321,-0.3432,-0.3469,-0.3527,-0.3548,-0.3556,-0.355,-0.3548,-0.3522,-0.3514,-0.348,-0.3495,-0.3492,-0.3415,-0.3465,-0.3466,-0.3355,-0.3345,-0.3337,-0.3257,-0.3451,0,0,0,0,0,-0.3179,-0.3257,-0.3351,-0.3431,-0.3465,-0.3508,-0.3533,-0.3541,-0.3561,-0.3556,-0.3533,-0.352,-0.3493,-0.3464,-0.3465,-0.3433,-0.3374,-0.3387,-0.3378,-0.337,-0.3313,-0.3169,-0.3138,-0.3476,-0.3476,-0.3476,0,0,-0.3187,-0.3264,-0.3312,-0.3421,-0.3463,-0.3472,-0.3512,-0.3563,-0.3519,-0.3554,-0.3492,-0.3506,-0.3492,-0.3436,-0.342,-0.3424,-0.3254,-0.3371,-0.3363,-0.331,-0.3166,-0.3132,-0.3101,-0.3476,-0.3476,-0.3476,0,0,-0.3192,-0.3309,-0.3345,-0.3379,-0.345,-0.347,-0.3484,-0.3536,-0.3507,-0.3503,-0.3482,-0.3423,-0.345,-0.3341,-0.3312,-0.3266,-0.3234,-0.3318,-0.3168,-0.303,-0.2997,-0.2968,-0.2867,-0.283,-0.3285,-0.3285,-0.3285,0,-0.3185,-0.3225,-0.3354,-0.3371,-0.3354,-0.346,-0.3419,-0.3442,-0.3462,-0.34,-0.347,-0.3385,-0.3365,-0.3195,-0.3174,-0.3222,-0.319,-0.3192,-0.3005,-0.2976,-0.2948,-0.2851,-0.2812,-0.3278,-0.3278,-0.3279,-0.328,0,-0.3192,-0.3195,-0.3221,-0.3255,-0.3273,-0.3267,-0.3311,-0.3304,-0.3315,-0.3298,-0.3198,-0.3189,-0.3098,-0.3103,-0.3123,-0.2915,-0.2973,-0.3023,-0.3003,-0.2902,-0.2811,-0.2772,-0.3267,-0.327,-0.3272,-0.3274,0,0,-0.3183,-0.3207,-0.3201,-0.3134,-0.3181,-0.3188,-0.3142,-0.3071,-0.2995,-0.3032,-0.288,-0.2828,-0.2833,-0.2798,-0.2799,-0.2683,-0.2463,-0.2775,-0.2771,-0.2623,-0.2196,-0.2147,-0.2102,-0.2503,-0.2495,-0.2489,-0.2213,0,-0.3088,-0.3041,-0.3074,-0.2958,-0.2901,-0.2944,-0.2872,-0.2847,-0.2837,-0.2752,-0.2713,-0.2637,-0.2717,-0.2678,-0.2558,-0.2522,-0.2357,-0.2535,-0.236,-0.2353,-0.2276,-0.2051,-0.1946,-0.1684,-0.2176,-0.2169,-0.2165,0,-0.2996,-0.2967,-0.2839,-0.2713,-0.27,-0.2664,-0.2536,-0.2503,-0.2441,-0.2431,-0.2356,-0.2388,-0.2222,-0.234,-0.2108,-0.2247,-0.217,-0.2144,-0.2134,-0.2097,-0.2228,-0.1867,-0.1596,-0.1611,-0.2106,-0.211,-0.2115,0,-0.2816,-0.2746,-0.2607,-0.2585,-0.253,-0.2452,-0.2435,-0.2382,-0.2325,-0.2243,-0.2206,-0.2072,-0.2013,-0.1911,-0.1889,-0.1989,-0.1669,-0.1784,-0.1635,-0.1635,-0.1502,-0.1502,-0.1162,-0.1515,-0.1516,-0.1517,-0.1517,0,-0.2606,-0.2491,-0.2526,-0.2454,-0.229,-0.2327,-0.2182,-0.2145,-0.2105,-0.2005,-0.2037,-0.1926,-0.1912,-0.1787,-0.1763,-0.1568,-0.1534,-0.1513,-0.1508,-0.1458,-0.1457,-0.1439,-0.1531,-0.1506,-0.1509,-0.1511,-0.1512,0,-0.2343,-0.2378,-0.2217,-0.2183,-0.2184,-0.2078,-0.2084,-0.2027,-0.1997,-0.1871,-0.1849,-0.1776,-0.1614,-0.1578,-0.1394,-0.1373,-0.1184,-0.1149,-0.1118,-0.1111,-0.1021,-0.1112,-0.0788,-0.0763,-0.091,-0.0906,-0.0903,0,-0.2174,-0.2077,-0.204,-0.2014,-0.1987,-0.1932,-0.1928,-0.1948,-0.1911,-0.1765,-0.1683,-0.152,-0.1335,-0.1078,-0.1028,-0.0873,-0.0965,-0.0705,-0.082,-0.0888,-0.0987,-0.1098,-0.1112,-0.0603,-0.0598,-0.0593,-0.059,0,-0.1831,-0.1846,-0.1767,-0.1762,-0.1753,-0.1731,-0.1731,-0.1671,-0.1675,-0.1541,-0.1301,-0.113,-0.0927,-0.068,-0.056,-0.0535,-0.0707,-0.0611,-0.0638,-0.0628,-0.0758,-0.0779,-0.0977,-0.0551,-0.0555,-0.0558,-0.056,-0.0562,-0.1585,-0.1496,-0.1498,-0.1465,-0.1506,-0.1502,-0.1404,-0.1412,-0.1264,-0.1025,-0.0958,-0.0655,-0.0379,-0.0181,-0.0232,-0.025,-0.038,-0.0239,-0.0316,-0.0403,-0.0423,-0.055,-0.017,-0.0172,-0.0173,-0.0174,-0.0175,0,-0.1293,-0.1291,-0.1247,-0.1226,-0.1244,-0.1325,-0.1268,-0.1154,-0.0916,-0.0759,-0.0503,-0.0085,0.0177,0.0195,0.0247,0.0127,-0.0039,0.0009,-0.0109,-0.0119,-0.0136,-0.0172,0.0175,0.0175,0.0175,0.0175,0.0175,0.0175,-0.1146,-0.1056,-0.1083,-0.1014,-0.1027,-0.0933,-0.0854,-0.0679,-0.0542,-0.02,0.0003,0.0119,0.0341,0.0522,0.0421,0.029,0.0116,0.0063,-0.0037,-0.0079,-0.0111,-0.0141,-0.0188,0.015,0.015,0.0034,0.0033,0.0032]},{"header":{"parameterUnit":"m.s-1","parameterCategory":2,"la1":30.2991,"la2":30.254,"lo1":-89.0895,"lo2":-89.0444,"dy":0.0017,"dx":0.0017,"nx":28,"ny":28,"refTime":"2025-08-03T09:00:00:Z","depth":"0","parameterNumber":3,"parameterNumberName":"V-component_of_CURRENTS"},"data":[0,0,0,0,0,0,0,0,0,0,0,0,0,0,0,0,0,0,0,0,0,0,0,0,0,0,0,0,0,0,0,0,0,0,0,0,0,0,0,0,0,0,0,0,0,0,0,0,0,0,0,0,0,0,0,0,0,0,-0.041,-0.041,0,-0.0319,-0.0317,-0.0315,-0.0191,-0.0189,-0.0188,-0.0186,-0.0014,-0.0011,-0.0008,0,0,0,0,0,0,0,0,0,0,0,0,0,-0.0573,-0.057,-0.041,-0.041,-0.0409,-0.0319,-0.0317,-0.0315,-0.0191,-0.0189,-0.0187,-0.0186,-0.0015,-0.0011,-0.0007,0,0,0,0,0,0,0,0,0,0,0,0,0,-0.0487,-0.0569,-0.041,-0.0342,-0.0335,-0.0319,-0.0317,-0.0314,-0.0191,-0.0189,-0.0187,-0.0185,-0.0016,-0.0012,-0.0007,-0.002,0,0,0.0008,0.001,0,0,0,0,0,0,0,0,-0.0492,-0.048,-0.0352,-0.0347,-0.0339,-0.027,-0.0312,-0.0214,-0.0192,-0.0238,-0.0186,-0.0184,-0.0099,-0.0087,-0.0065,-0.0012,-0.0004,0.0009,0.0012,0.0014,0.0015,0,0,0,0,0,0,0,-0.0498,-0.0484,-0.0367,-0.0352,-0.0344,-0.0349,-0.0333,-0.0293,-0.0175,-0.0234,-0.0227,-0.0229,-0.0093,-0.007,-0.006,-0.0002,0.0008,0.0013,0.0016,0.0018,0.0038,0.0036,0,0,0,0,0,0,-0.0521,-0.0489,-0.037,-0.0365,-0.042,-0.0348,-0.0329,-0.0289,-0.0176,-0.016,-0.0231,-0.0223,-0.008,-0.0066,-0.0054,-0.0007,0.0014,0.0018,0.0021,0.004,0.0037,0.0035,0,0,0,0,0,0,-0.0524,-0.0509,-0.0373,-0.0434,-0.0417,-0.0347,-0.0303,-0.0288,-0.0264,-0.0176,-0.0156,-0.0223,-0.0077,-0.006,-0.0038,-0.0002,0.002,0.0025,0.0043,0.0039,0.0036,0.005,0,0,0,0,0,0,-0.0528,-0.051,-0.0502,-0.0433,-0.0415,-0.0382,-0.0305,-0.0288,-0.0272,-0.0261,-0.0163,-0.0144,-0.0074,-0.0046,-0.0033,0.0006,0.0029,0.0046,0.0042,0.0037,0.0053,0.0047,0.0043,0,0,0,0,0,-0.0533,-0.0531,-0.05,-0.0488,-0.0399,-0.0385,-0.0376,-0.0315,-0.0275,-0.0281,-0.0219,-0.0147,-0.0065,-0.0045,-0.0029,0.0013,0.0048,0.0043,0.0038,0.0055,0.0048,0.0043,0,0,0,0,0,0,-0.0609,-0.0517,-0.0482,-0.0452,-0.0432,-0.0366,-0.0371,-0.0332,-0.0288,-0.0274,-0.0177,-0.0157,-0.0122,-0.0092,-0.0072,-0.0009,0.0003,0.0,0.001,0.0005,0.0,0.0036,0.0033,0,0,0,0,0,-0.0623,-0.0585,-0.0524,-0.051,-0.0497,-0.0438,-0.0428,-0.0392,-0.0344,-0.032,-0.0255,-0.0196,-0.0136,-0.0097,-0.0061,-0.0027,-0.0012,-0.0001,-0.0005,-0.0009,0.0021,0.0045,0.0048,0.0017,0.0017,0.0017,0,0,-0.0658,-0.0602,-0.0585,-0.0526,-0.0494,-0.0455,-0.0424,-0.0419,-0.0368,-0.0312,-0.0243,-0.0219,-0.0142,-0.0094,-0.0075,-0.0054,-0.0007,-0.0016,-0.0018,0.0015,0.004,0.0044,0.0048,0.0014,0.0014,0.0015,0,0,-0.0698,-0.065,-0.0624,-0.0592,-0.0556,-0.051,-0.0514,-0.0461,-0.0418,-0.0384,-0.0315,-0.0276,-0.0208,-0.0121,-0.0069,-0.0092,-0.0047,-0.0102,-0.0061,-0.0039,-0.0034,-0.003,-0.0052,-0.0049,-0.0085,-0.0085,-0.0085,0,-0.0746,-0.0672,-0.0633,-0.0591,-0.0554,-0.0527,-0.0489,-0.0447,-0.0397,-0.036,-0.037,-0.0257,-0.0197,-0.008,-0.0078,-0.0086,-0.01,-0.0027,-0.0038,-0.0033,-0.0028,-0.0051,-0.0048,-0.0085,-0.0085,-0.0085,-0.0085,0,-0.0745,-0.0684,-0.0677,-0.0577,-0.055,-0.0532,-0.0459,-0.0437,-0.0399,-0.0348,-0.0288,-0.0237,-0.0159,-0.0142,-0.0095,-0.0026,-0.0061,-0.0055,-0.0004,-0.0022,-0.0049,-0.0046,-0.0085,-0.0085,-0.0085,-0.0085,0,0,-0.0833,-0.0696,-0.0689,-0.0633,-0.0533,-0.0518,-0.0432,-0.0352,-0.0313,-0.0273,-0.0216,-0.0107,-0.011,-0.0056,-0.0018,0.0021,0.0034,0.0,0.0001,0.0012,0.0038,0.0065,0.007,0.0031,0.0033,0.0034,-0.0008,0,-0.0836,-0.075,-0.0669,-0.0592,-0.0536,-0.0459,-0.0391,-0.0322,-0.0276,-0.0237,-0.0158,-0.0117,-0.0064,-0.0061,-0.0001,0.0015,0.0049,0.0043,0.0026,0.0026,0.0083,0.0079,0.0142,0.0116,-0.0005,-0.0005,-0.0004,0,-0.0836,-0.077,-0.0686,-0.0568,-0.0543,-0.05,-0.0401,-0.0344,-0.0254,-0.0227,-0.0151,-0.0125,-0.0029,-0.0032,0.0056,0.0038,0.0052,0.0061,0.0059,0.0099,0.0062,0.0119,0.0126,0.0165,0.0001,0.0001,0.0,0,-0.0895,-0.0776,-0.0708,-0.0664,-0.0538,-0.0498,-0.0447,-0.035,-0.0299,-0.0239,-0.0225,-0.0124,-0.0102,-0.0045,0.002,0.0016,0.0069,0.006,0.0102,0.0101,0.0166,0.0169,0.0253,0.0119,0.0119,0.0119,0.0119,0,-0.0893,-0.0841,-0.0744,-0.0705,-0.0663,-0.0563,-0.0519,-0.0456,-0.0374,-0.0278,-0.0243,-0.0163,-0.0107,-0.0052,-0.0004,0.007,0.0059,0.0124,0.0112,0.0162,0.0165,0.0212,0.022,0.0117,0.0118,0.0118,0.0118,0,-0.0927,-0.086,-0.0789,-0.0692,-0.0678,-0.0653,-0.056,-0.051,-0.0454,-0.0334,-0.0313,-0.0213,-0.0134,-0.0089,-0.002,0.0037,0.0138,0.0119,0.0154,0.0151,0.0231,0.0236,0.0305,0.0376,0.0145,0.0146,0.0147,0,-0.0915,-0.0881,-0.0811,-0.0798,-0.0753,-0.0709,-0.0657,-0.0561,-0.0452,-0.0303,-0.0213,-0.0167,-0.0009,0.0039,0.0072,0.0114,0.0174,0.0206,0.0248,0.0268,0.0264,0.0257,0.0312,0.0301,0.0303,0.0304,0.0305,0,-0.0886,-0.0877,-0.0828,-0.0827,-0.0785,-0.0689,-0.058,-0.05,-0.0312,-0.0185,0.006,0.0162,0.0165,0.0255,0.0214,0.0253,0.027,0.0239,0.027,0.0421,0.0411,0.0462,0.0252,0.0319,0.0318,0.0317,0.0316,0.0315,-0.0867,-0.0858,-0.0829,-0.0828,-0.0771,-0.0602,-0.047,-0.0284,-0.0058,0.0268,0.0329,0.0563,0.0502,0.0454,0.0418,0.0373,0.0364,0.0447,0.045,0.0438,0.0538,0.0345,0.0401,0.04,0.0399,0.0399,0.0398,0,-0.0814,-0.0824,-0.0829,-0.075,-0.0647,-0.0613,-0.0358,-0.0147,0.0199,0.0492,0.0766,0.0978,0.0892,0.0741,0.0584,0.0596,0.0603,0.0629,0.0649,0.0697,0.0538,0.0581,0.0668,0.0668,0.0668,0.0667,0.0667,0.0667,-0.0779,-0.0776,-0.0799,-0.0644,-0.0562,-0.028,-0.0092,0.0221,0.0488,0.0978,0.1251,0.1408,0.1263,0.0861,0.0712,0.0731,0.0806,0.0806,0.0829,0.0718,0.0701,0.0685,0.0729,0.0845,0.0845,0.1026,0.1028,0.1029]}],[{"header":{"parameterUnit":"m.s-1","parameterCategory":2,"la1":30.2991,"la2":30.254,"lo1":-89.0895,"lo2":-89.0444,"dy":0.0017,"dx":0.0017,"nx":28,"ny":28,"refTime":"2025-08-03T09:00:00:Z","depth":"2","parameterNumber":2,"parameterNumberName":"U-component_of_CURRENTS"},"data":[0,0,0,0,0,0,0,0,0,0,0,0,0,0,0,0,0,0,0,0,0,0,0,0,0,0,0,0,0,0,0,0,0,0,0,0,0,0,0,0,0,0,0,0,0,0,0,0,0,0,0,0,0,0,0,0,0,0,-0.1473,-0.1472,0,-0.1511,-0.1513,-0.1515,-0.1646,-0.1647,-0.1649,-0.165,-0.1824,-0.1828,-0.1831,0,0,0,0,0,0,0,0,0,0,0,0,0,-0.1562,-0.1561,-0.1473,-0.1472,-0.1471,-0.1511,-0.1513,-0.1515,-0.1646,-0.1647,-0.1649,-0.1651,-0.1823,-0.1827,-0.1831,0,0,0,0,0,0,0,0,0,0,0,0,0,-0.157,-0.156,-0.1473,-0.1529,-0.1533,-0.151,-0.1513,-0.1516,-0.1645,-0.1647,-0.165,-0.1652,-0.1822,-0.1827,-0.1832,-0.182,0,0,-0.1847,-0.1849,0,0,0,0,0,0,0,0,-0.1569,-0.1568,-0.1522,-0.1525,-0.1529,-0.1561,-0.1607,-0.1618,-0.1645,-0.162,-0.165,-0.1653,-0.1736,-0.1749,-0.1773,-0.1828,-0.1836,-0.1847,-0.185,-0.1853,-0.1854,0,0,0,0,0,0,0,-0.1568,-0.1567,-0.1505,-0.152,-0.1524,-0.1566,-0.1572,-0.1611,-0.1682,-0.1623,-0.1628,-0.1605,-0.1742,-0.1768,-0.1778,-0.1838,-0.1847,-0.1852,-0.1855,-0.1857,-0.1957,-0.1957,0,0,0,0,0,0,-0.1524,-0.1566,-0.1504,-0.1505,-0.1536,-0.1562,-0.1568,-0.1563,-0.1678,-0.1692,-0.1603,-0.161,-0.1758,-0.1772,-0.1785,-0.1832,-0.1853,-0.1857,-0.186,-0.1957,-0.1957,-0.1957,0,0,0,0,0,0,-0.1527,-0.1519,-0.1502,-0.1523,-0.1521,-0.1556,-0.155,-0.1562,-0.1616,-0.1659,-0.1679,-0.1645,-0.1761,-0.1778,-0.1861,-0.1838,-0.186,-0.1864,-0.1958,-0.1957,-0.1957,-0.1892,0,0,0,0,0,0,-0.1529,-0.152,-0.1534,-0.152,-0.1517,-0.1513,-0.1546,-0.156,-0.1587,-0.16,-0.1701,-0.1718,-0.1764,-0.1853,-0.1866,-0.1845,-0.1868,-0.1958,-0.1958,-0.1957,-0.1894,-0.1889,-0.1885,0,0,0,0,0,-0.1533,-0.1538,-0.1536,-0.1528,-0.1525,-0.1511,-0.1519,-0.1561,-0.1587,-0.1619,-0.1693,-0.1716,-0.1857,-0.1859,-0.1873,-0.1853,-0.1959,-0.1958,-0.1957,-0.1896,-0.189,-0.1885,0,0,0,0,0,0,-0.1587,-0.1549,-0.1547,-0.1543,-0.1532,-0.1528,-0.1546,-0.1566,-0.1647,-0.1663,-0.1733,-0.1755,-0.1818,-0.1845,-0.1845,-0.1878,-0.1902,-0.1904,-0.1851,-0.1845,-0.184,-0.1792,-0.1872,0,0,0,0,0,-0.1593,-0.1586,-0.1555,-0.1546,-0.154,-0.1545,-0.1553,-0.1566,-0.1605,-0.1645,-0.1709,-0.1768,-0.1817,-0.1844,-0.19,-0.1921,-0.1908,-0.1911,-0.1906,-0.1902,-0.1872,-0.1844,-0.1833,-0.1954,-0.1954,-0.1954,0,0,-0.1586,-0.1578,-0.1563,-0.1556,-0.1551,-0.1522,-0.1563,-0.1558,-0.1556,-0.1646,-0.1705,-0.1769,-0.1826,-0.1863,-0.1887,-0.1887,-0.1861,-0.1901,-0.1897,-0.1869,-0.1842,-0.183,-0.1819,-0.1954,-0.1954,-0.1954,0,0,-0.1551,-0.1581,-0.155,-0.1552,-0.1531,-0.1526,-0.1523,-0.1531,-0.1576,-0.1622,-0.1679,-0.1719,-0.1816,-0.1825,-0.1846,-0.1838,-0.185,-0.1868,-0.179,-0.1763,-0.1752,-0.1742,-0.1705,-0.1692,-0.1848,-0.1848,-0.1847,0,-0.1561,-0.1523,-0.154,-0.152,-0.1516,-0.152,-0.1489,-0.1513,-0.1555,-0.158,-0.1639,-0.1726,-0.1778,-0.1773,-0.178,-0.182,-0.1819,-0.1809,-0.1754,-0.1744,-0.1734,-0.1699,-0.1686,-0.1844,-0.1845,-0.1845,-0.1845,0,-0.1471,-0.1479,-0.1466,-0.1436,-0.1439,-0.1422,-0.1424,-0.1455,-0.1503,-0.1515,-0.1568,-0.1638,-0.1678,-0.1695,-0.1746,-0.1699,-0.1725,-0.1763,-0.1761,-0.1718,-0.1684,-0.1671,-0.184,-0.1841,-0.1842,-0.1843,0,0,-0.1425,-0.1406,-0.141,-0.1418,-0.1409,-0.1404,-0.1397,-0.1394,-0.1406,-0.1449,-0.1466,-0.1517,-0.1546,-0.1568,-0.1615,-0.1586,-0.1528,-0.1648,-0.1648,-0.1596,-0.1471,-0.1377,-0.1355,-0.1575,-0.1572,-0.157,-0.1471,0,-0.1365,-0.1321,-0.1325,-0.1306,-0.1298,-0.1331,-0.1337,-0.1343,-0.1382,-0.1408,-0.1426,-0.1468,-0.1497,-0.1536,-0.1499,-0.1554,-0.1494,-0.155,-0.1533,-0.1531,-0.144,-0.1336,-0.1271,-0.1167,-0.1459,-0.1457,-0.1455,0,-0.1299,-0.1289,-0.1247,-0.1296,-0.1296,-0.1279,-0.1316,-0.1322,-0.1331,-0.1375,-0.1362,-0.1401,-0.1363,-0.1417,-0.137,-0.1421,-0.1419,-0.1433,-0.1431,-0.1349,-0.1411,-0.126,-0.1133,-0.1434,-0.1436,-0.1437,-0.1439,0,-0.1281,-0.1273,-0.125,-0.1256,-0.1265,-0.128,-0.1289,-0.1305,-0.133,-0.1335,-0.1351,-0.1318,-0.1329,-0.1305,-0.1313,-0.136,-0.1266,-0.1335,-0.1217,-0.1212,-0.1147,-0.1139,-0.1249,-0.1249,-0.125,-0.125,-0.125,0,-0.1248,-0.1248,-0.1249,-0.1239,-0.1256,-0.1275,-0.1288,-0.1312,-0.1321,-0.1316,-0.1323,-0.1311,-0.131,-0.1268,-0.1271,-0.1177,-0.1211,-0.1153,-0.1158,-0.1123,-0.1114,-0.1352,-0.1365,-0.1246,-0.1247,-0.1248,-0.1248,0,-0.1228,-0.1214,-0.1227,-0.124,-0.1247,-0.1268,-0.1289,-0.1287,-0.1312,-0.1305,-0.1304,-0.1293,-0.1224,-0.1185,-0.1147,-0.111,-0.1052,-0.1007,-0.0951,-0.0948,-0.1031,-0.1042,-0.0859,-0.0855,-0.0851,-0.0847,-0.0845,0,-0.1195,-0.1195,-0.1233,-0.1231,-0.1232,-0.1251,-0.1247,-0.1281,-0.127,-0.1285,-0.1267,-0.1209,-0.1153,-0.1023,-0.0922,-0.0818,-0.0912,-0.0712,-0.0757,-0.0955,-0.098,-0.0998,-0.1015,-0.0659,-0.0655,-0.0652,-0.0649,0,-0.1155,-0.1189,-0.1183,-0.1185,-0.1188,-0.1186,-0.1186,-0.1187,-0.1207,-0.1213,-0.119,-0.1156,-0.1005,-0.0862,-0.0702,-0.0637,-0.0723,-0.0638,-0.0841,-0.0763,-0.0756,-0.0786,-0.081,-0.062,-0.0623,-0.0625,-0.0627,-0.0628,-0.1138,-0.1135,-0.1128,-0.1124,-0.1118,-0.108,-0.1052,-0.1062,-0.1051,-0.1024,-0.1069,-0.0984,-0.0929,-0.0628,-0.0527,-0.0396,-0.0467,-0.0468,-0.0483,-0.0501,-0.0489,-0.0475,-0.0284,-0.0285,-0.0285,-0.0286,-0.0287,0,-0.1074,-0.1049,-0.1048,-0.1011,-0.095,-0.0987,-0.0959,-0.0909,-0.0874,-0.088,-0.0861,-0.0714,-0.0598,-0.051,-0.028,-0.0211,-0.0235,-0.018,-0.0274,-0.0301,-0.0326,-0.0311,-0.0056,-0.0055,-0.0055,-0.0054,0,0,-0.1027,-0.0971,-0.0956,-0.0825,-0.0797,-0.0694,-0.0663,-0.0645,-0.0626,-0.0581,-0.0544,-0.0582,-0.0544,-0.0361,-0.027,-0.0149,-0.0221,-0.0092,-0.0276,-0.0418,-0.0443,-0.0481,-0.0486,0,0,0,0,0]},{"header":{"parameterUnit":"m.s-1","parameterCategory":2,"la1":30.2991,"la2":30.254,"lo1":-89.0895,"lo2":-89.0444,"dy":0.0017,"dx":0.0017,"nx":28,"ny":28,"refTime":"2025-08-03T09:00:00:Z","depth":"2","parameterNumber":3,"parameterNumberName":"V-component_of_CURRENTS"},"data":[0,0,0,0,0,0,0,0,0,0,0,0,0,0,0,0,0,0,0,0,0,0,0,0,0,0,0,0,0,0,0,0,0,0,0,0,0,0,0,0,0,0,0,0,0,0,0,0,0,0,0,0,0,0,0,0,0,0,-0.066,-0.0661,0,-0.0597,-0.0595,-0.0594,-0.05,-0.05,-0.0499,-0.0499,-0.014,-0.0131,-0.0122,0,0,0,0,0,0,0,0,0,0,0,0,0,-0.0682,-0.0681,-0.066,-0.0661,-0.0661,-0.0597,-0.0595,-0.0593,-0.05,-0.05,-0.0499,-0.0499,-0.0143,-0.0132,-0.0121,0,0,0,0,0,0,0,0,0,0,0,0,0,-0.0638,-0.0681,-0.066,-0.0617,-0.0613,-0.0598,-0.0595,-0.0593,-0.05,-0.05,-0.0499,-0.0498,-0.0147,-0.0133,-0.012,-0.0047,0,0,-0.0078,-0.0072,0,0,0,0,0,0,0,0,-0.0641,-0.0636,-0.0623,-0.062,-0.0616,-0.0568,-0.0472,-0.04,-0.05,-0.0529,-0.0499,-0.0498,-0.0265,-0.0241,-0.0216,-0.003,-0.0015,-0.0076,-0.0068,-0.0062,-0.0058,0,0,0,0,0,0,0,-0.0644,-0.0638,-0.0622,-0.0624,-0.062,-0.0596,-0.0587,-0.0458,-0.0385,-0.0526,-0.0523,-0.0537,-0.0259,-0.023,-0.0206,-0.001,-0.0077,-0.0064,-0.0056,-0.0051,0.0284,0.0284,0,0,0,0,0,0,-0.068,-0.0641,-0.0624,-0.0621,-0.0643,-0.0597,-0.0587,-0.0573,-0.0393,-0.0371,-0.0538,-0.0534,-0.0253,-0.0222,-0.0193,-0.0074,-0.0062,-0.0049,-0.0041,0.0283,0.0284,0.0284,0,0,0,0,0,0,-0.0681,-0.0678,-0.0627,-0.0642,-0.0636,-0.0599,-0.0583,-0.0572,-0.0533,-0.0408,-0.0377,-0.0511,-0.0252,-0.0212,-0.0107,-0.0059,-0.0043,-0.0031,0.0282,0.0283,0.0284,0.0152,0,0,0,0,0,0,-0.0681,-0.0678,-0.0669,-0.0644,-0.0637,-0.0611,-0.0584,-0.0572,-0.0551,-0.0543,-0.0374,-0.0342,-0.0248,-0.0129,-0.0094,-0.004,-0.002,0.0281,0.0283,0.0284,0.0156,0.0149,0.0142,0,0,0,0,0,-0.0681,-0.0671,-0.0668,-0.0667,-0.0629,-0.0612,-0.0603,-0.0568,-0.0551,-0.0529,-0.0448,-0.0346,-0.0095,-0.0119,-0.0077,-0.0018,0.0281,0.0282,0.0284,0.0159,0.015,0.0142,0,0,0,0,0,0,-0.068,-0.0662,-0.0657,-0.0643,-0.0633,-0.0601,-0.0588,-0.0568,-0.0488,-0.0478,-0.0349,-0.0311,-0.0194,-0.0097,-0.0128,0.008,0.0117,0.0127,0.0008,0.0001,-0.0005,-0.0057,-0.0008,0,0,0,0,0,-0.0682,-0.0664,-0.0655,-0.0648,-0.0642,-0.0615,-0.0603,-0.0586,-0.0531,-0.0496,-0.0391,-0.0271,-0.0156,-0.0079,0.0035,0.0146,0.0183,0.0216,0.0209,0.0202,0.0187,0.0226,0.0219,0.0289,0.0289,0.0289,0,0,-0.0693,-0.0677,-0.0672,-0.0647,-0.0632,-0.0623,-0.06,-0.0591,-0.0577,-0.0463,-0.0388,-0.0288,-0.0137,-0.0028,0.0038,0.0062,0.0205,0.0204,0.0197,0.0186,0.0226,0.0219,0.0213,0.029,0.029,0.029,0,0,-0.0695,-0.0679,-0.0661,-0.065,-0.0643,-0.0631,-0.0632,-0.0599,-0.057,-0.0513,-0.0424,-0.034,-0.0144,-0.0058,0.002,0.0046,0.0159,0.0132,0.0074,0.011,0.0104,0.0098,0.0132,0.0131,0.0138,0.0138,0.0137,0,-0.0708,-0.0677,-0.0659,-0.0641,-0.0638,-0.0636,-0.0626,-0.0606,-0.0546,-0.0518,-0.0501,-0.0286,-0.0172,-0.0047,-0.0042,0.0031,0.0075,0.0087,0.0096,0.0092,0.0088,0.0125,0.0125,0.0131,0.0132,0.0133,0.0133,0,-0.0694,-0.0673,-0.0666,-0.0639,-0.0633,-0.0629,-0.0621,-0.06,-0.0579,-0.0554,-0.0456,-0.0352,-0.0222,-0.0161,-0.0088,-0.0018,0.0028,0.0068,0.01,0.0072,0.0114,0.0116,0.0123,0.0125,0.0127,0.0128,0,0,-0.0707,-0.0662,-0.0659,-0.0643,-0.063,-0.0625,-0.0614,-0.059,-0.0569,-0.0533,-0.0485,-0.0355,-0.0316,-0.0229,-0.0126,-0.0099,-0.0094,-0.0024,-0.0019,-0.002,-0.0003,0.0015,0.0021,-0.0042,-0.0043,-0.0043,0.0032,0,-0.0698,-0.0663,-0.0642,-0.0626,-0.0611,-0.0605,-0.0588,-0.0574,-0.0549,-0.0505,-0.0451,-0.036,-0.0332,-0.0257,-0.0239,-0.0104,-0.009,-0.0117,0.0051,0.0055,0.005,0.0022,0.0024,0.009,0.0035,0.0035,0.0036,0,-0.0679,-0.0657,-0.0633,-0.06,-0.0592,-0.059,-0.0562,-0.0546,-0.0507,-0.0479,-0.0438,-0.0379,-0.0316,-0.0299,-0.0187,-0.0194,-0.0122,-0.0058,-0.0053,0.0009,0.0077,0.0115,0.0097,0.004,0.004,0.004,0.0039,0,-0.0681,-0.0645,-0.0625,-0.0617,-0.0589,-0.0577,-0.0566,-0.0536,-0.0516,-0.0464,-0.0437,-0.0374,-0.0315,-0.0255,-0.0152,-0.0148,-0.0041,-0.0011,0.0056,0.0059,0.0113,0.012,0.0031,0.0031,0.003,0.003,0.003,0,-0.0662,-0.0646,-0.0626,-0.0615,-0.0603,-0.0577,-0.0555,-0.0534,-0.0493,-0.0474,-0.0425,-0.0387,-0.0302,-0.0231,-0.0157,-0.005,-0.0049,0.0029,0.0073,0.0069,0.0072,0.0078,0.0082,0.0033,0.0032,0.0032,0.0031,0,-0.0661,-0.064,-0.0627,-0.0605,-0.0603,-0.0598,-0.0576,-0.0558,-0.051,-0.0483,-0.0467,-0.0384,-0.0284,-0.0206,-0.0074,-0.0036,0.006,0.0097,0.008,0.0119,0.0136,0.0133,0.0176,0.0177,0.0178,0.0178,0.0179,0,-0.0652,-0.0642,-0.0642,-0.065,-0.0643,-0.0633,-0.0628,-0.0583,-0.057,-0.0486,-0.0476,-0.0364,-0.029,-0.0108,-0.0,0.012,0.011,0.0177,0.0164,0.0108,0.0148,0.0143,0.014,0.0191,0.0192,0.0193,0.0193,0,-0.0652,-0.0659,-0.0657,-0.0678,-0.0683,-0.0685,-0.0675,-0.0666,-0.061,-0.0571,-0.0488,-0.0409,-0.0217,-0.0069,0.0084,0.0149,0.0153,0.0193,0.0156,0.0146,0.0128,0.0164,0.016,0.0198,0.0198,0.0197,0.0197,0.0197,-0.0669,-0.0681,-0.0689,-0.0706,-0.072,-0.0733,-0.0725,-0.0705,-0.0674,-0.0588,-0.052,-0.0368,-0.0228,0.0021,0.0124,0.0232,0.0226,0.0241,0.0238,0.0235,0.0215,0.0198,0.0278,0.0278,0.0278,0.0278,0.0278,0,-0.0679,-0.069,-0.0715,-0.0731,-0.0747,-0.0752,-0.0749,-0.0719,-0.0679,-0.0579,-0.0483,-0.0313,-0.014,0.0026,0.021,0.0289,0.0279,0.0295,0.0266,0.0261,0.0257,0.0236,0.0307,0.0307,0.0307,0.0307,0,0,-0.0683,-0.0702,-0.0713,-0.0745,-0.0759,-0.0769,-0.0765,-0.0716,-0.0636,-0.0517,-0.0394,-0.0282,-0.0093,0.002,0.013,0.024,0.0226,0.0246,0.0217,0.0166,0.016,0.0223,0.0185,0,0,0,0,0]}],[{"header":{"parameterUnit":"m.s-1","parameterCategory":2,"la1":30.2991,"la2":30.254,"lo1":-89.0895,"lo2":-89.0444,"dy":0.0017,"dx":0.0017,"nx":28,"ny":28,"refTime":"2025-08-03T09:00:00:Z","depth":"4","parameterNumber":2,"parameterNumberName":"U-component_of_CURRENTS"},"data":[0,0,0,0,0,0,0,0,0,0,0,0,0,0,0,0,0,0,0,0,0,0,0,0,0,0,0,0,0,0,0,0,0,0,0,0,0,0,0,0,0,0,0,0,0,0,0,0,0,0,0,0,0,0,0,0,0,0,-0.0843,-0.0843,0,-0.0855,-0.0855,-0.0855,-0.0861,-0.0861,-0.0861,-0.0861,-0.0907,-0.0908,-0.0909,0,0,0,0,0,0,0,0,0,0,0,0,0,-0.0866,-0.0865,-0.0843,-0.0843,-0.0844,-0.0855,-0.0855,-0.0855,-0.0861,-0.0861,-0.0861,-0.0861,-0.0906,-0.0908,-0.0909,0,0,0,0,0,0,0,0,0,0,0,0,0,-0.0863,-0.0865,-0.0843,-0.0849,-0.085,-0.0855,-0.0855,-0.0855,-0.0861,-0.0861,-0.0861,-0.0861,-0.0906,-0.0908,-0.0909,-0.0915,0,0,-0.0914,-0.0915,0,0,0,0,0,0,0,0,-0.0863,-0.0862,-0.0848,-0.0849,-0.085,-0.0858,-0.088,-0.0877,-0.086,-0.0855,-0.0861,-0.0861,-0.0895,-0.0897,-0.0896,-0.0917,-0.0919,-0.0914,-0.0915,-0.0916,-0.0916,0,0,0,0,0,0,0,-0.0863,-0.0862,-0.0846,-0.0848,-0.0849,-0.0865,-0.0865,-0.0879,-0.0872,-0.0855,-0.0856,-0.086,-0.0895,-0.0894,-0.0897,-0.0919,-0.0914,-0.0916,-0.0917,-0.0917,-0.0989,-0.099,0,0,0,0,0,0,-0.0863,-0.0862,-0.0846,-0.0847,-0.0859,-0.0865,-0.0864,-0.0854,-0.0872,-0.0875,-0.086,-0.086,-0.0891,-0.0895,-0.0899,-0.0927,-0.0916,-0.0917,-0.0918,-0.0988,-0.0989,-0.099,0,0,0,0,0,0,-0.0863,-0.086,-0.0845,-0.0857,-0.0856,-0.0864,-0.0853,-0.0854,-0.087,-0.0875,-0.0879,-0.0877,-0.0892,-0.0897,-0.0934,-0.0928,-0.0918,-0.092,-0.0987,-0.0989,-0.099,-0.0971,0,0,0,0,0,0,-0.0863,-0.086,-0.086,-0.0856,-0.0856,-0.0857,-0.0853,-0.0854,-0.0872,-0.0873,-0.0891,-0.0894,-0.0892,-0.0932,-0.0935,-0.093,-0.0921,-0.0986,-0.0988,-0.099,-0.097,-0.0971,-0.0972,0,0,0,0,0,-0.0864,-0.086,-0.086,-0.0859,-0.0852,-0.0858,-0.0859,-0.0865,-0.0873,-0.088,-0.0901,-0.0894,-0.0945,-0.0934,-0.0938,-0.0933,-0.0985,-0.0987,-0.0989,-0.097,-0.0971,-0.0972,0,0,0,0,0,0,-0.0871,-0.086,-0.086,-0.0853,-0.0861,-0.086,-0.0871,-0.0876,-0.0897,-0.0904,-0.0912,-0.0917,-0.0939,-0.0953,-0.094,-0.0963,-0.0962,-0.0965,-0.0945,-0.0947,-0.0948,-0.0955,-0.0922,0,0,0,0,0,-0.0872,-0.0867,-0.0864,-0.0862,-0.0868,-0.0874,-0.0881,-0.0883,-0.0898,-0.0907,-0.0922,-0.094,-0.0948,-0.0963,-0.0972,-0.0996,-0.0999,-0.0996,-0.0997,-0.0998,-0.1009,-0.1028,-0.1031,-0.0997,-0.0997,-0.0997,0,0,-0.0873,-0.087,-0.0866,-0.0865,-0.0872,-0.0878,-0.0879,-0.0891,-0.0898,-0.091,-0.0936,-0.0944,-0.0956,-0.097,-0.0982,-0.0984,-0.1003,-0.1,-0.1,-0.1011,-0.1031,-0.1034,-0.1036,-0.0999,-0.0999,-0.0998,0,0,-0.0876,-0.0874,-0.0872,-0.0879,-0.0891,-0.0893,-0.0902,-0.0911,-0.0918,-0.0944,-0.0945,-0.0963,-0.0989,-0.0988,-0.0992,-0.1013,-0.1003,-0.1013,-0.1027,-0.1046,-0.1048,-0.1051,-0.1026,-0.1026,-0.1019,-0.1019,-0.1019,0,-0.088,-0.0877,-0.0876,-0.0883,-0.0896,-0.0903,-0.0915,-0.0917,-0.0938,-0.0952,-0.0956,-0.0991,-0.0994,-0.1007,-0.1006,-0.1012,-0.1013,-0.1014,-0.1045,-0.1048,-0.1051,-0.1025,-0.1026,-0.1018,-0.1018,-0.1018,-0.1018,0,-0.088,-0.0887,-0.0893,-0.0899,-0.0912,-0.0925,-0.0931,-0.0946,-0.0962,-0.0967,-0.0993,-0.1002,-0.1027,-0.1018,-0.1018,-0.1034,-0.1021,-0.1035,-0.1035,-0.1052,-0.1024,-0.1025,-0.1017,-0.1017,-0.1018,-0.1018,0,0,-0.0864,-0.0886,-0.0891,-0.0908,-0.0926,-0.0937,-0.0952,-0.097,-0.0988,-0.1002,-0.1029,-0.1032,-0.1042,-0.1049,-0.1044,-0.1057,-0.1053,-0.1057,-0.1058,-0.102,-0.1066,-0.0951,-0.0941,-0.1075,-0.1076,-0.1077,-0.1025,0,-0.087,-0.0887,-0.09,-0.093,-0.0943,-0.0964,-0.0981,-0.0998,-0.1013,-0.1036,-0.104,-0.1059,-0.1049,-0.1061,-0.1071,-0.1062,-0.1062,-0.1064,-0.1067,-0.1066,-0.0953,-0.0941,-0.108,-0.1025,-0.1026,-0.1026,-0.1026,0,-0.0867,-0.0882,-0.0909,-0.0955,-0.0966,-0.0986,-0.1029,-0.1044,-0.1064,-0.1078,-0.1097,-0.1099,-0.1105,-0.1103,-0.1098,-0.1102,-0.1087,-0.1077,-0.1075,-0.0981,-0.0954,-0.1016,-0.1028,-0.1028,-0.1027,-0.1027,-0.1027,0,-0.0858,-0.0895,-0.0922,-0.0935,-0.0977,-0.1005,-0.1033,-0.1061,-0.1076,-0.1104,-0.1114,-0.1131,-0.1129,-0.1135,-0.1093,-0.1109,-0.1076,-0.1098,-0.0975,-0.0966,-0.1094,-0.1092,-0.1104,-0.1104,-0.1104,-0.1104,-0.1105,0,-0.0853,-0.0878,-0.0923,-0.0936,-0.098,-0.1013,-0.1054,-0.1081,-0.111,-0.1113,-0.1137,-0.1127,-0.1142,-0.1115,-0.1099,-0.1014,-0.1079,-0.0968,-0.0949,-0.1082,-0.108,-0.1092,-0.1091,-0.1102,-0.1103,-0.1103,-0.1104,0,-0.0833,-0.0858,-0.0902,-0.0959,-0.0975,-0.1011,-0.1063,-0.1074,-0.1113,-0.1114,-0.1122,-0.1124,-0.1072,-0.1052,-0.1032,-0.0991,-0.0946,-0.0903,-0.1005,-0.0995,-0.0823,-0.0822,-0.0773,-0.0769,-0.0765,-0.0762,-0.0759,0,-0.082,-0.0837,-0.0913,-0.0929,-0.0957,-0.1002,-0.1014,-0.1067,-0.1067,-0.109,-0.1073,-0.1042,-0.1021,-0.089,-0.0893,-0.0827,-0.082,-0.0794,-0.0847,-0.0804,-0.0792,-0.0797,-0.0801,-0.0753,-0.0752,-0.0751,-0.075,0,-0.0802,-0.0842,-0.0873,-0.0898,-0.0923,-0.0942,-0.0965,-0.0963,-0.0996,-0.1047,-0.0987,-0.0941,-0.0863,-0.0816,-0.0746,-0.0717,-0.0817,-0.0756,-0.0764,-0.0814,-0.078,-0.0772,-0.0781,-0.0737,-0.0739,-0.074,-0.0741,0,-0.0797,-0.0811,-0.0841,-0.0852,-0.0874,-0.0845,-0.0884,-0.0862,-0.0873,-0.0906,-0.088,-0.0843,-0.0852,-0.0754,-0.0704,-0.0641,-0.0645,-0.0646,-0.0661,-0.0675,-0.0663,-0.0607,-0.0486,0,0,0,0,0,-0.0776,-0.0757,-0.0774,-0.0768,-0.0782,-0.0778,-0.0814,-0.0846,-0.0886,-0.0819,-0.0848,-0.0772,-0.0681,-0.0672,-0.0581,-0.0641,-0.0639,-0.0535,-0.0648,-0.0666,-0.0681,-0.0673,0,0,0,0,0,0,-0.0754,-0.0765,-0.0747,-0.0672,-0.0644,-0.0634,-0.0652,-0.069,-0.0664,-0.072,-0.0673,-0.0715,-0.0635,-0.0701,-0.0558,-0.0551,-0.0605,-0.0525,-0.0523,-0.0657,-0.0671,-0.0683,-0.0681,0,0,0,0,0]},{"header":{"parameterUnit":"m.s-1","parameterCategory":2,"la1":30.2991,"la2":30.254,"lo1":-89.0895,"lo2":-89.0444,"dy":0.0017,"dx":0.0017,"nx":28,"ny":28,"refTime":"2025-08-03T09:00:00:Z","depth":"4","parameterNumber":3,"parameterNumberName":"V-component_of_CURRENTS"},"data":[0,0,0,0,0,0,0,0,0,0,0,0,0,0,0,0,0,0,0,0,0,0,0,0,0,0,0,0,0,0,0,0,0,0,0,0,0,0,0,0,0,0,0,0,0,0,0,0,0,0,0,0,0,0,0,0,0,0,-0.0494,-0.0494,0,-0.0495,-0.0495,-0.0495,-0.0499,-0.0499,-0.05,-0.05,-0.0496,-0.0496,-0.0496,0,0,0,0,0,0,0,0,0,0,0,0,0,-0.0485,-0.0485,-0.0493,-0.0494,-0.0494,-0.0495,-0.0495,-0.0495,-0.0499,-0.0499,-0.05,-0.05,-0.0496,-0.0496,-0.0496,0,0,0,0,0,0,0,0,0,0,0,0,0,-0.0487,-0.0485,-0.0493,-0.0497,-0.0498,-0.0495,-0.0495,-0.0494,-0.0499,-0.0499,-0.05,-0.05,-0.0497,-0.0496,-0.0496,-0.0486,0,0,-0.0494,-0.0494,0,0,0,0,0,0,0,0,-0.0487,-0.0487,-0.0496,-0.0497,-0.0497,-0.0498,-0.0491,-0.0492,-0.0499,-0.0497,-0.05,-0.05,-0.0497,-0.0497,-0.0494,-0.0486,-0.0486,-0.0494,-0.0494,-0.0494,-0.0494,0,0,0,0,0,0,0,-0.0486,-0.0487,-0.0493,-0.0497,-0.0497,-0.0495,-0.0496,-0.0491,-0.0494,-0.0497,-0.0498,-0.05,-0.0497,-0.0495,-0.0494,-0.0486,-0.0494,-0.0494,-0.0494,-0.0493,-0.0489,-0.049,0,0,0,0,0,0,-0.0489,-0.0487,-0.0493,-0.0493,-0.0494,-0.0495,-0.0496,-0.0497,-0.0494,-0.0495,-0.05,-0.05,-0.0495,-0.0495,-0.0494,-0.0508,-0.0494,-0.0493,-0.0493,-0.0489,-0.0489,-0.049,0,0,0,0,0,0,-0.0489,-0.0489,-0.0493,-0.0491,-0.0491,-0.0495,-0.0496,-0.0496,-0.0501,-0.0496,-0.0497,-0.0505,-0.0496,-0.0495,-0.0496,-0.0507,-0.0493,-0.0493,-0.0489,-0.0489,-0.049,-0.052,0,0,0,0,0,0,-0.0489,-0.0489,-0.0494,-0.0491,-0.0492,-0.0494,-0.0496,-0.0496,-0.0502,-0.0503,-0.0501,-0.05,-0.0496,-0.0497,-0.0495,-0.0506,-0.0492,-0.0489,-0.0489,-0.0489,-0.0518,-0.0521,-0.0523,0,0,0,0,0,-0.0488,-0.0488,-0.0494,-0.0495,-0.0497,-0.0495,-0.0494,-0.0498,-0.0502,-0.0503,-0.0504,-0.0501,-0.0498,-0.0496,-0.0495,-0.0506,-0.0489,-0.0489,-0.0489,-0.0517,-0.052,-0.0523,0,0,0,0,0,0,-0.049,-0.0489,-0.0495,-0.0497,-0.0499,-0.0496,-0.0498,-0.0501,-0.0502,-0.0507,-0.0501,-0.0501,-0.0509,-0.0499,-0.0498,-0.0505,-0.0493,-0.0493,-0.0515,-0.0518,-0.052,-0.0498,-0.0492,0,0,0,0,0,-0.0493,-0.0493,-0.0494,-0.0498,-0.0498,-0.05,-0.0502,-0.0506,-0.0506,-0.0507,-0.0505,-0.0505,-0.0507,-0.0506,-0.0505,-0.0505,-0.0465,-0.0511,-0.0513,-0.0515,-0.0496,-0.044,-0.0435,-0.0491,-0.0491,-0.0491,0,0,-0.0497,-0.0497,-0.0498,-0.0499,-0.05,-0.0505,-0.0501,-0.0506,-0.0516,-0.0506,-0.0516,-0.0514,-0.0509,-0.0515,-0.0517,-0.0509,-0.0481,-0.0516,-0.0518,-0.0497,-0.0439,-0.0434,-0.0429,-0.0491,-0.0491,-0.0491,0,0,-0.0498,-0.0503,-0.0501,-0.0504,-0.0509,-0.0512,-0.0516,-0.0517,-0.0522,-0.0532,-0.0529,-0.0526,-0.0533,-0.0524,-0.0523,-0.0533,-0.0498,-0.0543,-0.0534,-0.048,-0.0475,-0.0469,-0.0423,-0.0413,-0.0541,-0.0541,-0.0541,0,-0.0506,-0.0503,-0.0501,-0.0503,-0.0507,-0.0517,-0.052,-0.0529,-0.0534,-0.0529,-0.0541,-0.0529,-0.0534,-0.0522,-0.0533,-0.0537,-0.05,-0.0528,-0.0482,-0.0475,-0.0469,-0.0423,-0.0411,-0.0542,-0.0542,-0.0542,-0.0542,0,-0.0505,-0.0508,-0.0507,-0.0513,-0.0518,-0.0524,-0.0535,-0.0542,-0.0554,-0.0553,-0.0547,-0.0544,-0.0527,-0.0542,-0.0545,-0.051,-0.0496,-0.0494,-0.0473,-0.0465,-0.0417,-0.0405,-0.0544,-0.0544,-0.0543,-0.0543,0,0,-0.0508,-0.0505,-0.0508,-0.051,-0.0524,-0.0527,-0.0543,-0.0545,-0.0541,-0.0552,-0.0531,-0.0545,-0.0527,-0.0522,-0.0519,-0.0482,-0.0426,-0.0471,-0.0468,-0.0422,-0.0303,-0.0311,-0.0298,-0.0413,-0.0411,-0.0409,-0.0292,0,-0.0509,-0.0511,-0.051,-0.052,-0.0521,-0.0532,-0.0538,-0.0545,-0.0549,-0.0532,-0.0524,-0.051,-0.0526,-0.0513,-0.0479,-0.044,-0.0392,-0.0457,-0.032,-0.0315,-0.032,-0.0284,-0.0402,-0.0283,-0.028,-0.0277,-0.0276,0,-0.0506,-0.0508,-0.0514,-0.0512,-0.0512,-0.0523,-0.0523,-0.0528,-0.0513,-0.0507,-0.0484,-0.0472,-0.0433,-0.0444,-0.0349,-0.0389,-0.034,-0.0308,-0.0302,-0.0284,-0.0299,-0.0288,-0.0253,-0.0255,-0.0256,-0.0258,-0.0259,0,-0.0504,-0.0507,-0.0512,-0.0517,-0.052,-0.0524,-0.0526,-0.0519,-0.0514,-0.0482,-0.0464,-0.0416,-0.0388,-0.0321,-0.0281,-0.0299,-0.0168,-0.0183,-0.0136,-0.0137,-0.0152,-0.0159,-0.0085,-0.0085,-0.0085,-0.0086,-0.0086,0,-0.0497,-0.0501,-0.0513,-0.0517,-0.0524,-0.052,-0.0516,-0.0511,-0.0486,-0.0473,-0.0443,-0.0416,-0.0353,-0.0291,-0.0245,-0.0155,-0.0133,-0.0112,-0.0097,-0.0171,-0.0182,-0.0144,-0.0152,-0.0081,-0.0082,-0.0083,-0.0084,0,-0.0491,-0.0496,-0.0507,-0.0518,-0.0524,-0.053,-0.0529,-0.0521,-0.0489,-0.0469,-0.0456,-0.0397,-0.0313,-0.025,-0.0138,-0.0109,-0.0026,0.0003,-0.0077,-0.0073,-0.0036,-0.0047,0.0087,0.0088,0.0089,0.0089,0.009,0,-0.0485,-0.049,-0.052,-0.0537,-0.0547,-0.0554,-0.0562,-0.0537,-0.0529,-0.0467,-0.0457,-0.0365,-0.0328,-0.0167,-0.0101,0.0019,0.0021,0.007,0.0019,-0.0013,-0.0013,-0.0025,-0.0038,0.0091,0.0091,0.0091,0.0092,0,-0.0483,-0.0501,-0.0517,-0.0554,-0.0575,-0.0588,-0.0594,-0.058,-0.0546,-0.0517,-0.0448,-0.0366,-0.0263,-0.0163,-0.0066,0.0008,0.0039,0.0078,0.0077,0.0029,-0.0007,-0.001,-0.0023,0.0094,0.0094,0.0094,0.0093,0,-0.0493,-0.051,-0.0541,-0.0567,-0.0601,-0.0615,-0.061,-0.0591,-0.0566,-0.0497,-0.0476,-0.0364,-0.0299,-0.0166,-0.0084,-0.0003,0.0012,0.0021,0.0023,0.0021,-0.0049,-0.0108,-0.0001,0,0,0,0,0,-0.0499,-0.0518,-0.055,-0.0579,-0.0612,-0.0628,-0.0633,-0.0619,-0.0583,-0.0541,-0.0504,-0.0414,-0.0266,-0.0195,-0.0112,-0.0075,0.002,0.0024,0.003,0.0109,0.0106,0.0033,0,0,0,0,0,0,-0.0505,-0.0538,-0.055,-0.0585,-0.0605,-0.0634,-0.0639,-0.0616,-0.0582,-0.0538,-0.0458,-0.0405,-0.026,-0.0316,-0.0114,-0.0086,-0.0074,0.0098,0.0099,0.0111,0.0108,0.0106,0.0029,0,0,0,0,0]}]]